WBANNO,USDM_WEEK,LONGITUDE,LATITUDE,SMVWC_5_CM_MEAN,SMANOM_5_CM_MEAN,SMPERC_5_CM_30COUNTS,SMPERC_5_CM_70COUNTS,SMVWC_10_CM_MEAN,SMANOM_10_CM_MEAN,SMPERC_10_CM_30COUNTS,SMPERC_10_CM_70COUNTS,SMVWC_20_CM_MEAN,SMANOM_20_CM_MEAN,SMPERC_20_CM_30COUNTS,SMPERC_20_CM_70COUNTS,SMVWC_50_CM_MEAN,SMANOM_50_CM_MEAN,SMPERC_50_CM_30COUNTS,SMPERC_50_CM_70COUNTS,SMVWC_100_CM_MEAN,SMANOM_100_CM_MEAN,SMPERC_100_CM_30COUNTS,SMPERC_100_CM_70COUNTS,SMVWC_TOP_CM_MEAN,SMANOM_TOP_CM_MEAN,SMPERC_TOP_CM_30COUNTS,SMPERC_TOP_CM_70COUNTS,SMVWC_COLUMN_CM_MEAN,SMANOM_COLUMN_CM_MEAN,SMPERC_COLUMN_CM_30COUNTS,SMPERC_COLUMN_CM_70COUNTS
03761,20110415,-75.79,39.86,,,,,,,,,,,,,,,,,,,,,,,,,,,,
03761,20110416,-75.79,39.86,,,,,,,,,,,,,,,,,,,,,,,,,,,,
03761,20110417,-75.79,39.86,,,,,,,,,,,,,,,,,,,,,,,,,,,,
03761,20110418,-75.79,39.86,,,,,,,,,,,,,,,,,,,,,,,,,,,,
03761,20110419,-75.79,39.86,,,,,,,,,,,,,,,,,,,,,,,,,,,,
03761,20110420,-75.79,39.86,0.41,1.21,0,1,0.391,1.37,0,1,0.363,0.9,0,1,0.388,1.36,0,1,0.305,0.78,0,0.599,0.4,1.28,0,1,0.371,1.22,0,1
03761,20110421,-75.79,39.86,0.409,1.2,0,1,0.391,1.37,0,1,0.363,0.91,0,1,0.388,1.35,0,1,0.308,0.85,0,0.658,0.4,1.28,0,1,0.372,1.24,0,1
03761,20110422,-75.79,39.86,0.406,1.17,0,1,0.388,1.32,0,1,0.364,0.93,0,1,0.389,1.37,0,1,0.315,1,0,0.774,0.397,1.23,0,1,0.372,1.25,0,1
03761,20110423,-75.79,39.86,0.402,1.14,0,1,0.384,1.27,0,1,0.365,0.94,0,1,0.391,1.4,0,1,0.323,1.17,0,0.917,0.393,1.18,0,1,0.373,1.28,0,1
03761,20110424,-75.79,39.86,0.396,1.07,0,1,0.376,1.16,0,1,0.361,0.89,0,1,0.39,1.34,0,1,0.327,1.26,0,1,0.386,1.09,0,1,0.37,1.23,0,1
03761,20110425,-75.79,39.86,0.391,1.02,0,1,0.369,1.06,0,1,0.358,0.83,0,1,0.386,1.23,0,1,0.323,1.17,0,1,0.38,1.01,0,1,0.365,1.15,0,1
03761,20110426,-75.79,39.86,0.386,0.97,0,1,0.362,0.96,0,1,0.355,0.78,0,1,0.384,1.15,0,1,0.318,1.07,0,1,0.374,0.94,0,1,0.361,1.08,0,1
03761,20110427,-75.79,39.86,0.378,0.89,0,1,0.354,0.85,0,1,0.352,0.73,0,1,0.382,1.08,0,1,0.314,0.98,0,1,0.366,0.84,0,1,0.356,1,0,1
03761,20110428,-75.79,39.86,0.369,0.8,0,1,0.345,0.73,0,1,0.348,0.67,0,1,0.38,1.03,0,1,0.31,0.91,0,1,0.357,0.74,0,1,0.35,0.91,0,1
03761,20110429,-75.79,39.86,0.366,0.76,0,1,0.34,0.67,0,1,0.345,0.63,0,1,0.378,0.97,0,1,0.307,0.84,0,1,0.353,0.7,0,1,0.347,0.86,0,1
03761,20110430,-75.79,39.86,0.36,0.71,0,0.887,0.336,0.61,0,0.887,0.342,0.59,0,0.899,0.376,0.92,0,1,0.305,0.78,0,1,0.348,0.64,0,0.887,0.344,0.81,0,0.982
03761,20110501,-75.79,39.86,0.349,0.59,0,0.744,0.328,0.51,0,0.744,0.338,0.53,0,0.756,0.374,0.86,0,1,0.302,0.73,0,1,0.339,0.53,0,0.744,0.338,0.72,0,0.839
03761,20110502,-75.79,39.86,0.337,0.46,0,0.601,0.32,0.39,0,0.601,0.333,0.46,0,0.613,0.372,0.81,0,1,0.3,0.69,0,0.994,0.328,0.4,0,0.601,0.333,0.62,0,0.696
03761,20110503,-75.79,39.86,0.326,0.34,0,0.458,0.312,0.28,0,0.458,0.328,0.38,0,0.47,0.37,0.75,0,1,0.298,0.65,0,0.929,0.319,0.28,0,0.458,0.327,0.53,0,0.554
03761,20110504,-75.79,39.86,0.317,0.24,0,0.315,0.304,0.17,0,0.315,0.324,0.31,0,0.327,0.368,0.68,0,1,0.296,0.61,0,0.81,0.311,0.18,0,0.315,0.322,0.44,0,0.411
03761,20110505,-75.79,39.86,0.321,0.27,0,0.315,0.305,0.19,0,0.298,0.322,0.28,0,0.274,0.366,0.63,0,1,0.294,0.57,0,0.667,0.313,0.21,0,0.315,0.322,0.43,0,0.411
03761,20110506,-75.79,39.86,0.32,0.26,0,0.298,0.305,0.19,0,0.298,0.322,0.28,0,0.262,0.364,0.57,0,1,0.292,0.54,0,0.524,0.313,0.21,0,0.315,0.321,0.42,0,0.411
03761,20110507,-75.79,39.86,0.321,0.27,0,0.315,0.306,0.21,0,0.268,0.322,0.28,0,0.304,0.362,0.52,0,1,0.29,0.5,0,0.381,0.313,0.23,0,0.399,0.32,0.42,0,0.429
03761,20110508,-75.79,39.86,0.322,0.29,0,0.315,0.307,0.24,0,0.268,0.322,0.29,0,0.31,0.36,0.49,0,1,0.289,0.48,0,0.238,0.315,0.26,0,0.429,0.32,0.43,0,0.542
03761,20110509,-75.79,39.86,0.323,0.31,0,0.315,0.309,0.27,0,0.268,0.323,0.31,0,0.31,0.359,0.46,0,1,0.287,0.46,0,0.101,0.316,0.29,0,0.429,0.32,0.45,0,0.542
03761,20110510,-75.79,39.86,0.323,0.32,0,0.315,0.31,0.29,0,0.268,0.323,0.33,0,0.31,0.358,0.45,0,1,0.285,0.44,0,0.024,0.316,0.31,0,0.429,0.32,0.46,0,0.542
03761,20110511,-75.79,39.86,0.321,0.3,0,0.315,0.31,0.31,0,0.268,0.323,0.35,0,0.31,0.358,0.44,0,1,0.284,0.42,0,0,0.315,0.31,0,0.429,0.319,0.46,0,0.542
03761,20110512,-75.79,39.86,0.305,0.15,0.03,0.173,0.302,0.2,0,0.143,0.32,0.31,0,0.22,0.357,0.43,0,0.994,0.282,0.4,0,0,0.303,0.16,0,0.286,0.313,0.37,0,0.399
03761,20110513,-75.79,39.86,0.291,0,0.167,0.048,0.293,0.08,0.024,0,0.316,0.25,0,0.089,0.356,0.42,0,0.917,0.281,0.39,0,0,0.292,0.03,0.095,0.143,0.307,0.28,0,0.256
03761,20110514,-75.79,39.86,0.278,-0.14,0.31,0,0.284,-0.03,0.167,0,0.312,0.19,0,0.006,0.355,0.41,0,0.774,0.28,0.38,0,0,0.281,-0.1,0.238,0.03,0.302,0.18,0,0.113
03761,20110515,-75.79,39.86,0.266,-0.26,0.417,0,0.277,-0.14,0.31,0,0.307,0.11,0,0,0.354,0.4,0,0.631,0.279,0.37,0,0,0.272,-0.22,0.381,0,0.296,0.09,0,0
03761,20110516,-75.79,39.86,0.265,-0.28,0.417,0.054,0.273,-0.18,0.357,0.054,0.303,0.05,0,0,0.352,0.38,0,0.488,0.278,0.37,0,0,0.269,-0.25,0.381,0.06,0.294,0.05,0,0.054
03761,20110517,-75.79,39.86,0.271,-0.2,0.417,0.173,0.275,-0.13,0.357,0.19,0.301,0.02,0,0,0.35,0.36,0,0.345,0.277,0.36,0,0,0.273,-0.18,0.381,0.202,0.295,0.07,0,0.173
03761,20110518,-75.79,39.86,0.286,-0.03,0.417,0.315,0.287,0.07,0.357,0.333,0.305,0.1,0,0.143,0.348,0.35,0,0.214,0.276,0.35,0,0,0.286,0.01,0.381,0.345,0.3,0.19,0,0.315
03761,20110519,-75.79,39.86,0.301,0.15,0.387,0.458,0.298,0.28,0.357,0.476,0.309,0.2,0,0.286,0.347,0.34,0,0.22,0.275,0.36,0,0,0.3,0.21,0.381,0.488,0.306,0.33,0,0.458
03761,20110520,-75.79,39.86,0.321,0.38,0.25,0.601,0.312,0.53,0.333,0.619,0.316,0.33,0,0.429,0.346,0.35,0,0.298,0.274,0.36,0,0,0.316,0.44,0.286,0.631,0.314,0.49,0,0.601
03761,20110521,-75.79,39.86,0.344,0.65,0.107,0.744,0.328,0.81,0.19,0.762,0.323,0.48,0,0.571,0.346,0.37,0,0.44,0.273,0.36,0,0,0.336,0.72,0.143,0.774,0.323,0.69,0,0.744
03761,20110522,-75.79,39.86,0.363,0.88,0,0.887,0.342,1.06,0.048,0.905,0.332,0.65,0,0.714,0.347,0.42,0,0.583,0.272,0.37,0,0,0.353,0.97,0,0.917,0.331,0.88,0,0.887
03761,20110523,-75.79,39.86,0.374,1.02,0,0.976,0.352,1.24,0,0.994,0.339,0.8,0,0.857,0.348,0.47,0,0.726,0.271,0.38,0,0.024,0.363,1.12,0,1,0.337,1.02,0,0.976
03761,20110524,-75.79,39.86,0.38,1.09,0,1,0.358,1.35,0,1,0.344,0.92,0,1,0.35,0.54,0,0.869,0.271,0.4,0,0.065,0.369,1.21,0,1,0.341,1.12,0,1
03761,20110525,-75.79,39.86,0.377,1.07,0,1,0.354,1.3,0,1,0.345,0.94,0,1,0.352,0.61,0,1,0.271,0.42,0,0.131,0.366,1.17,0,1,0.34,1.12,0,1
03761,20110526,-75.79,39.86,0.373,1.03,0,1,0.35,1.23,0,1,0.344,0.94,0,1,0.353,0.67,0,1,0.27,0.44,0,0.173,0.362,1.12,0,1,0.338,1.1,0,1
03761,20110527,-75.79,39.86,0.364,0.94,0,0.952,0.344,1.12,0,1,0.342,0.91,0,1,0.355,0.72,0,1,0.27,0.46,0,0.226,0.354,1.02,0,1,0.335,1.03,0,1
03761,20110528,-75.79,39.86,0.35,0.79,0,0.81,0.334,0.96,0,0.958,0.337,0.83,0,1,0.356,0.77,0,1,0.27,0.47,0,0.321,0.342,0.86,0,0.881,0.329,0.92,0,1
03761,20110529,-75.79,39.86,0.336,0.63,0,0.667,0.324,0.8,0,0.815,0.333,0.75,0,1,0.356,0.8,0,1,0.27,0.49,0,0.423,0.33,0.7,0,0.738,0.324,0.8,0,0.923
03761,20110530,-75.79,39.86,0.32,0.46,0,0.524,0.313,0.64,0,0.673,0.327,0.66,0,0.917,0.356,0.81,0,1,0.27,0.5,0,0.446,0.317,0.53,0,0.595,0.317,0.67,0,0.78
03761,20110531,-75.79,39.86,0.302,0.26,0.095,0.381,0.299,0.43,0,0.53,0.321,0.55,0,0.774,0.355,0.8,0,1,0.27,0.5,0,0.405,0.301,0.32,0.054,0.452,0.309,0.51,0,0.637
03761,20110601,-75.79,39.86,0.282,0.04,0.238,0.238,0.285,0.22,0.071,0.387,0.315,0.43,0,0.631,0.354,0.79,0,1,0.269,0.49,0,0.345,0.284,0.11,0.196,0.31,0.301,0.34,0,0.494
03761,20110602,-75.79,39.86,0.262,-0.16,0.381,0.095,0.271,0.02,0.214,0.244,0.308,0.31,0,0.488,0.353,0.76,0,1,0.269,0.49,0,0.321,0.267,-0.1,0.339,0.167,0.293,0.17,0.006,0.351
03761,20110603,-75.79,39.86,0.241,-0.38,0.524,0,0.256,-0.18,0.357,0.101,0.3,0.18,0,0.345,0.351,0.73,0,1,0.269,0.49,0,0.268,0.249,-0.32,0.482,0.024,0.283,0.01,0.149,0.208
03761,20110604,-75.79,39.86,0.221,-0.58,0.667,0,0.24,-0.39,0.5,0,0.292,0.06,0.036,0.202,0.349,0.68,0,1,0.268,0.48,0,0.173,0.231,-0.53,0.625,0,0.274,-0.15,0.292,0.065
03761,20110605,-75.79,39.86,0.201,-0.76,0.81,0,0.224,-0.6,0.643,0,0.283,-0.07,0.179,0.06,0.347,0.63,0,1,0.268,0.46,0,0.071,0.213,-0.73,0.768,0,0.265,-0.3,0.435,0
03761,20110606,-75.79,39.86,0.183,-0.93,0.952,0,0.209,-0.8,0.786,0,0.274,-0.2,0.321,0,0.344,0.58,0,1,0.267,0.45,0,0.024,0.196,-0.92,0.911,0,0.255,-0.44,0.577,0
03761,20110607,-75.79,39.86,0.168,-1.08,1,0,0.194,-0.97,0.929,0,0.265,-0.33,0.464,0,0.341,0.52,0,0.97,0.266,0.43,0,0.024,0.181,-1.08,1,0,0.247,-0.56,0.72,0
03761,20110608,-75.79,39.86,0.154,-1.21,1,0,0.18,-1.14,1,0,0.256,-0.46,0.607,0,0.338,0.45,0,0.833,0.266,0.42,0,0.018,0.167,-1.23,1,0,0.239,-0.68,0.863,0
03761,20110609,-75.79,39.86,0.142,-1.31,1,0,0.167,-1.29,1,0,0.246,-0.6,0.75,0,0.334,0.37,0,0.69,0.265,0.39,0,0,0.154,-1.37,1,0,0.231,-0.79,1,0
03761,20110610,-75.79,39.86,0.133,-1.4,1,0,0.155,-1.42,1,0,0.236,-0.73,0.893,0,0.33,0.3,0,0.548,0.264,0.38,0,0,0.144,-1.48,1,0,0.224,-0.88,1,0
03761,20110611,-75.79,39.86,0.126,-1.47,1,0,0.145,-1.53,1,0,0.226,-0.85,1,0,0.326,0.21,0,0.405,0.263,0.36,0,0,0.135,-1.58,1,0,0.217,-0.96,1,0
03761,20110612,-75.79,39.86,0.123,-1.48,1,0,0.137,-1.61,1,0,0.217,-0.96,1,0,0.322,0.13,0,0.262,0.262,0.34,0,0,0.13,-1.64,1,0,0.212,-1.02,1,0
03761,20110613,-75.79,39.86,0.128,-1.42,1,0,0.133,-1.63,1,0,0.209,-1.05,1,0,0.318,0.05,0,0.119,0.262,0.32,0,0,0.13,-1.62,1,0,0.21,-1.03,1,0
03761,20110614,-75.79,39.86,0.133,-1.35,1,0,0.13,-1.64,1,0,0.203,-1.11,1,0,0.314,-0.02,0,0.006,0.261,0.32,0,0,0.132,-1.59,1,0,0.208,-1.04,1,0
03761,20110615,-75.79,39.86,0.138,-1.28,1,0,0.129,-1.62,1,0,0.197,-1.15,1,0,0.31,-0.09,0,0,0.26,0.3,0,0,0.133,-1.55,1,0,0.207,-1.03,1,0
03761,20110616,-75.79,39.86,0.142,-1.22,1,0,0.129,-1.59,1,0,0.193,-1.17,1,0,0.306,-0.16,0.071,0,0.259,0.29,0,0,0.135,-1.5,1,0,0.206,-1.02,1,0
03761,20110617,-75.79,39.86,0.147,-1.12,1,0,0.13,-1.53,1,0,0.19,-1.15,1,0,0.303,-0.21,0.19,0,0.258,0.28,0,0,0.138,-1.42,1,0,0.206,-0.99,1,0
03761,20110618,-75.79,39.86,0.156,-0.99,1,0,0.133,-1.44,1,0,0.189,-1.12,1,0,0.3,-0.25,0.327,0,0.257,0.27,0,0,0.144,-1.3,1,0,0.207,-0.93,1,0
03761,20110619,-75.79,39.86,0.16,-0.9,1,0,0.135,-1.35,1,0,0.188,-1.07,1,0,0.297,-0.29,0.47,0,0.256,0.25,0,0,0.148,-1.2,1,0,0.207,-0.88,1,0
03761,20110620,-75.79,39.86,0.156,-0.89,1,0,0.135,-1.29,1,0,0.188,-1.03,1,0,0.295,-0.31,0.613,0,0.255,0.24,0,0,0.145,-1.16,1,0,0.206,-0.87,1,0
03761,20110621,-75.79,39.86,0.151,-0.89,1,0,0.134,-1.24,1,0,0.187,-0.99,1,0,0.293,-0.33,0.756,0,0.254,0.23,0,0,0.142,-1.14,1,0,0.204,-0.85,1,0
03761,20110622,-75.79,39.86,0.151,-0.84,1,0,0.135,-1.16,1,0,0.187,-0.94,1,0,0.29,-0.35,0.899,0,0.254,0.21,0,0,0.143,-1.07,1,0,0.203,-0.81,1,0
03761,20110623,-75.79,39.86,0.154,-0.77,1,0,0.137,-1.09,1,0,0.187,-0.9,1,0,0.289,-0.36,0.97,0,0.253,0.2,0,0,0.145,-1,1,0,0.204,-0.76,1,0
03761,20110624,-75.79,39.86,0.155,-0.73,1,0,0.138,-1.01,1,0,0.187,-0.87,1,0,0.287,-0.36,0.988,0,0.252,0.18,0,0,0.147,-0.93,1,0,0.204,-0.73,1,0
03761,20110625,-75.79,39.86,0.157,-0.69,0.905,0,0.143,-0.92,0.887,0,0.189,-0.81,0.982,0,0.286,-0.36,0.929,0,0.251,0.17,0,0,0.15,-0.86,0.887,0,0.205,-0.68,0.887,0
03761,20110626,-75.79,39.86,0.159,-0.65,0.893,0,0.15,-0.82,0.75,0,0.192,-0.76,0.982,0,0.284,-0.35,0.821,0,0.25,0.16,0,0,0.154,-0.78,0.81,0,0.207,-0.63,0.839,0
03761,20110627,-75.79,39.86,0.161,-0.6,0.893,0,0.155,-0.74,0.72,0,0.194,-0.71,0.982,0,0.283,-0.35,0.685,0,0.249,0.15,0,0,0.158,-0.72,0.81,0,0.208,-0.59,0.839,0
03761,20110628,-75.79,39.86,0.164,-0.56,0.893,0,0.16,-0.67,0.72,0,0.196,-0.67,0.982,0,0.282,-0.34,0.542,0,0.248,0.14,0,0,0.162,-0.65,0.81,0,0.21,-0.55,0.839,0
03761,20110629,-75.79,39.86,0.164,-0.55,0.893,0,0.163,-0.63,0.72,0,0.197,-0.64,0.982,0,0.281,-0.33,0.399,0,0.247,0.14,0,0,0.163,-0.62,0.81,0,0.21,-0.53,0.839,0
03761,20110630,-75.79,39.86,0.161,-0.56,0.893,0,0.164,-0.6,0.72,0,0.199,-0.61,0.982,0,0.28,-0.31,0.256,0,0.246,0.13,0,0,0.163,-0.6,0.81,0,0.21,-0.52,0.839,0
03761,20110701,-75.79,39.86,0.159,-0.56,0.893,0,0.166,-0.58,0.72,0,0.2,-0.59,0.982,0,0.279,-0.3,0.119,0,0.246,0.12,0,0,0.162,-0.59,0.81,0,0.21,-0.51,0.839,0
03761,20110702,-75.79,39.86,0.151,-0.61,0.988,0,0.16,-0.62,0.833,0,0.198,-0.6,1,0,0.278,-0.29,0.042,0,0.245,0.11,0,0,0.156,-0.63,0.923,0,0.206,-0.53,0.952,0
03761,20110703,-75.79,39.86,0.143,-0.66,1,0,0.152,-0.67,0.97,0,0.195,-0.62,1,0,0.277,-0.28,0.006,0,0.244,0.1,0,0,0.148,-0.68,1,0,0.202,-0.56,1,0
03761,20110704,-75.79,39.86,0.135,-0.71,1,0,0.145,-0.72,1,0,0.192,-0.64,1,0,0.275,-0.28,0,0,0.243,0.09,0,0,0.14,-0.72,1,0,0.198,-0.59,1,0
03761,20110705,-75.79,39.86,0.128,-0.76,1,0,0.137,-0.77,1,0,0.188,-0.67,1,0,0.274,-0.28,0.077,0,0.242,0.07,0,0,0.133,-0.77,1,0,0.194,-0.62,1,0
03761,20110706,-75.79,39.86,0.12,-0.81,1,0,0.13,-0.82,1,0,0.184,-0.7,1,0,0.271,-0.28,0.214,0,0.242,0.06,0,0,0.125,-0.82,1,0,0.189,-0.66,1,0
03761,20110707,-75.79,39.86,0.112,-0.86,1,0,0.122,-0.87,1,0,0.179,-0.74,1,0,0.269,-0.3,0.357,0,0.241,0.04,0,0,0.117,-0.86,1,0,0.185,-0.7,1,0
03761,20110708,-75.79,39.86,0.105,-0.9,1,0,0.115,-0.91,1,0,0.174,-0.78,1,0,0.266,-0.31,0.5,0,0.24,0.02,0,0,0.11,-0.9,1,0,0.18,-0.73,1,0
03761,20110709,-75.79,39.86,0.104,-0.9,1,0,0.11,-0.94,1,0,0.169,-0.81,1,0,0.263,-0.33,0.643,0,0.239,0.01,0,0,0.107,-0.92,1,0,0.177,-0.75,1,0
03761,20110710,-75.79,39.86,0.106,-0.87,1,0,0.106,-0.95,1,0,0.165,-0.84,1,0,0.26,-0.34,0.786,0,0.238,0,0,0,0.106,-0.91,1,0,0.175,-0.75,1,0
03761,20110711,-75.79,39.86,0.107,-0.84,1,0,0.103,-0.95,1,0,0.161,-0.85,1,0,0.257,-0.36,0.929,0,0.237,-0.02,0,0,0.105,-0.9,1,0,0.173,-0.75,1,0
03761,20110712,-75.79,39.86,0.107,-0.81,1,0,0.101,-0.93,1,0,0.157,-0.86,1,0,0.254,-0.37,0.994,0,0.236,-0.03,0,0,0.104,-0.88,1,0,0.171,-0.74,1,0
03761,20110713,-75.79,39.86,0.106,-0.78,1,0,0.1,-0.92,1,0,0.154,-0.86,1,0,0.251,-0.38,1,0,0.236,-0.05,0,0,0.103,-0.85,1,0,0.169,-0.73,1,0
03761,20110714,-75.79,39.86,0.105,-0.75,1,0,0.098,-0.9,1,0,0.151,-0.86,1,0,0.249,-0.4,1,0,0.235,-0.06,0,0,0.102,-0.83,1,0,0.168,-0.71,1,0
03761,20110715,-75.79,39.86,0.104,-0.72,1,0,0.097,-0.88,1,0,0.149,-0.85,1,0,0.246,-0.41,1,0,0.234,-0.07,0,0,0.101,-0.8,1,0,0.166,-0.7,1,0
03761,20110716,-75.79,39.86,0.099,-0.73,1,0,0.096,-0.86,1,0,0.146,-0.85,1,0,0.243,-0.42,1,0,0.233,-0.08,0,0,0.097,-0.8,1,0,0.163,-0.7,1,0
03761,20110717,-75.79,39.86,0.092,-0.76,1,0,0.094,-0.86,1,0,0.144,-0.84,1,0,0.24,-0.43,1,0,0.232,-0.1,0,0,0.093,-0.81,1,0,0.16,-0.71,1,0
03761,20110718,-75.79,39.86,0.087,-0.78,1,0,0.092,-0.86,1,0,0.141,-0.84,1,0,0.237,-0.45,1,0,0.231,-0.1,0,0,0.089,-0.82,1,0,0.157,-0.73,1,0
03761,20110719,-75.79,39.86,0.083,-0.8,1,0,0.09,-0.87,1,0,0.138,-0.85,1,0,0.233,-0.46,1,0,0.23,-0.11,0,0,0.086,-0.84,1,0,0.155,-0.74,1,0
03761,20110720,-75.79,39.86,0.08,-0.83,1,0,0.088,-0.88,1,0,0.135,-0.85,1,0,0.23,-0.48,1,0,0.229,-0.13,0,0,0.084,-0.85,1,0,0.152,-0.76,1,0
03761,20110721,-75.79,39.86,0.078,-0.84,1,0,0.086,-0.9,1,0,0.133,-0.86,1,0,0.227,-0.49,1,0,0.227,-0.14,0,0,0.082,-0.87,1,0,0.15,-0.78,1,0
03761,20110722,-75.79,39.86,0.076,-0.86,1,0,0.085,-0.91,1,0,0.131,-0.88,1,0,0.224,-0.5,1,0,0.226,-0.15,0,0,0.08,-0.88,1,0,0.148,-0.8,1,0
03761,20110723,-75.79,39.86,0.075,-0.87,1,0,0.083,-0.93,1,0,0.129,-0.89,1,0,0.221,-0.52,1,0,0.225,-0.17,0,0,0.079,-0.9,1,0,0.147,-0.82,1,0
03761,20110724,-75.79,39.86,0.074,-0.89,1,0,0.082,-0.93,1,0,0.127,-0.91,1,0,0.218,-0.53,1,0,0.224,-0.19,0,0,0.078,-0.91,1,0,0.145,-0.83,1,0
03761,20110725,-75.79,39.86,0.072,-0.89,1,0,0.081,-0.94,1,0,0.125,-0.93,1,0,0.215,-0.55,1,0,0.223,-0.21,0,0,0.077,-0.92,1,0,0.143,-0.84,1,0
03761,20110726,-75.79,39.86,0.076,-0.87,0.994,0,0.083,-0.93,1,0,0.124,-0.94,1,0,0.213,-0.57,1,0,0.222,-0.23,0,0,0.079,-0.9,1,0,0.144,-0.84,1,0
03761,20110727,-75.79,39.86,0.083,-0.82,0.994,0,0.09,-0.88,1,0,0.124,-0.95,1,0,0.211,-0.58,1,0,0.221,-0.25,0.036,0,0.086,-0.85,1,0,0.146,-0.82,1,0
03761,20110728,-75.79,39.86,0.09,-0.78,0.994,0,0.096,-0.83,1,0,0.125,-0.95,1,0,0.21,-0.59,1,0,0.22,-0.28,0.119,0,0.093,-0.81,1,0,0.148,-0.79,1,0
03761,20110729,-75.79,39.86,0.098,-0.72,0.952,0,0.102,-0.79,1,0,0.125,-0.95,1,0,0.209,-0.6,1,0,0.219,-0.3,0.244,0,0.1,-0.76,1,0,0.15,-0.76,1,0
03761,20110730,-75.79,39.86,0.107,-0.66,0.946,0,0.109,-0.73,1,0,0.127,-0.94,1,0,0.208,-0.6,1,0,0.217,-0.32,0.387,0,0.108,-0.7,1,0,0.154,-0.72,1,0
03761,20110731,-75.79,39.86,0.116,-0.6,0.946,0,0.115,-0.68,1,0,0.128,-0.92,1,0,0.208,-0.6,1,0,0.216,-0.35,0.53,0,0.115,-0.65,1,0,0.157,-0.68,1,0
03761,20110801,-75.79,39.86,0.123,-0.56,0.946,0,0.121,-0.64,1,0,0.13,-0.91,1,0,0.208,-0.59,1,0,0.215,-0.37,0.673,0,0.122,-0.61,1,0,0.159,-0.65,1,0
03761,20110802,-75.79,39.86,0.125,-0.55,0.952,0,0.123,-0.63,1,0,0.132,-0.9,1,0,0.208,-0.59,1,0,0.214,-0.39,0.815,0,0.124,-0.59,1,0,0.16,-0.64,1,0
03761,20110803,-75.79,39.86,0.121,-0.57,0.952,0,0.121,-0.65,1,0,0.132,-0.9,1,0,0.208,-0.59,1,0,0.213,-0.41,0.923,0,0.121,-0.61,1,0,0.159,-0.65,1,0
03761,20110804,-75.79,39.86,0.119,-0.58,0.952,0,0.118,-0.67,1,0,0.132,-0.9,1,0,0.209,-0.58,1,0,0.212,-0.43,0.982,0,0.119,-0.63,1,0,0.158,-0.66,1,0
03761,20110805,-75.79,39.86,0.116,-0.61,0.994,0,0.116,-0.7,1,0,0.132,-0.9,1,0,0.209,-0.58,1,0,0.211,-0.45,1,0,0.116,-0.65,1,0,0.157,-0.68,1,0
03761,20110806,-75.79,39.86,0.112,-0.64,1,0,0.113,-0.73,1,0,0.132,-0.91,1,0,0.209,-0.58,1,0,0.21,-0.48,1,0,0.112,-0.68,1,0,0.155,-0.71,1,0
03761,20110807,-75.79,39.86,0.109,-0.66,1,0,0.11,-0.76,1,0,0.131,-0.92,1,0,0.209,-0.58,1,0,0.209,-0.5,1,0,0.109,-0.71,1,0,0.154,-0.73,1,0
03761,20110808,-75.79,39.86,0.107,-0.68,1,0,0.108,-0.78,1,0,0.131,-0.93,1,0,0.209,-0.58,1,0,0.208,-0.52,1,0,0.107,-0.72,1,0,0.153,-0.75,1,0
03761,20110809,-75.79,39.86,0.106,-0.69,1,0,0.106,-0.81,1,0,0.131,-0.93,1,0,0.209,-0.58,1,0,0.208,-0.53,1,0,0.106,-0.74,1,0,0.152,-0.77,1,0
03761,20110810,-75.79,39.86,0.114,-0.65,0.881,0,0.115,-0.75,0.887,0,0.141,-0.86,0.917,0,0.214,-0.53,0.887,0,0.207,-0.55,1,0,0.114,-0.69,0.881,0,0.158,-0.72,0.887,0
03761,20110811,-75.79,39.86,0.122,-0.6,0.792,0,0.126,-0.69,0.744,0,0.154,-0.76,0.774,0,0.222,-0.46,0.744,0,0.207,-0.55,1,0,0.124,-0.63,0.738,0,0.166,-0.67,0.744,0
03761,20110812,-75.79,39.86,0.127,-0.57,0.786,0,0.136,-0.64,0.607,0,0.166,-0.68,0.631,0,0.23,-0.39,0.601,0,0.207,-0.55,1,0,0.131,-0.59,0.649,0,0.173,-0.62,0.619,0
03761,20110813,-75.79,39.86,0.132,-0.54,0.786,0,0.144,-0.59,0.554,0,0.177,-0.61,0.488,0,0.237,-0.33,0.458,0,0.207,-0.55,1,0,0.138,-0.55,0.649,0,0.179,-0.58,0.601,0
03761,20110814,-75.79,39.86,0.141,-0.49,0.679,0,0.153,-0.53,0.518,0,0.188,-0.53,0.351,0,0.244,-0.27,0.315,0,0.207,-0.54,1,0,0.147,-0.5,0.542,0,0.186,-0.53,0.554,0
03761,20110815,-75.79,39.86,0.165,-0.34,0.536,0.071,0.173,-0.4,0.375,0,0.208,-0.38,0.208,0,0.253,-0.19,0.173,0,0.208,-0.51,0.982,0,0.169,-0.36,0.399,0,0.202,-0.41,0.411,0
03761,20110816,-75.79,39.86,0.195,-0.17,0.393,0.19,0.199,-0.22,0.232,0.113,0.233,-0.2,0.065,0.077,0.265,-0.1,0.03,0,0.209,-0.48,0.982,0,0.197,-0.18,0.256,0.113,0.22,-0.26,0.268,0
03761,20110817,-75.79,39.86,0.216,-0.05,0.369,0.333,0.214,-0.11,0.202,0.155,0.247,-0.1,0.006,0.089,0.271,-0.05,0,0,0.211,-0.46,0.982,0,0.215,-0.07,0.232,0.196,0.232,-0.17,0.238,0
03761,20110818,-75.79,39.86,0.234,0.06,0.315,0.381,0.227,-0.02,0.202,0.155,0.258,-0.02,0.006,0.089,0.276,-0.01,0,0,0.212,-0.43,0.982,0,0.231,0.03,0.232,0.202,0.241,-0.09,0.238,0
03761,20110819,-75.79,39.86,0.259,0.2,0.179,0.47,0.244,0.1,0.196,0.232,0.272,0.08,0.006,0.161,0.282,0.04,0,0.012,0.213,-0.4,0.982,0,0.252,0.15,0.179,0.28,0.254,0.01,0.22,0.071
03761,20110820,-75.79,39.86,0.288,0.36,0.036,0.613,0.266,0.24,0.107,0.375,0.289,0.2,0.006,0.304,0.294,0.13,0,0.155,0.216,-0.36,0.869,0,0.277,0.31,0.036,0.423,0.271,0.15,0.095,0.214
03761,20110821,-75.79,39.86,0.313,0.49,0,0.756,0.286,0.37,0,0.518,0.305,0.32,0,0.446,0.307,0.23,0,0.298,0.219,-0.3,0.726,0,0.299,0.43,0,0.565,0.286,0.27,0,0.357
03761,20110822,-75.79,39.86,0.32,0.52,0,0.827,0.294,0.42,0,0.661,0.311,0.36,0,0.589,0.318,0.3,0,0.44,0.221,-0.27,0.601,0,0.307,0.47,0,0.708,0.293,0.32,0,0.5
03761,20110823,-75.79,39.86,0.322,0.51,0,0.821,0.295,0.42,0,0.601,0.313,0.36,0,0.595,0.326,0.35,0,0.583,0.223,-0.23,0.458,0,0.308,0.47,0,0.667,0.296,0.34,0,0.542
03761,20110824,-75.79,39.86,0.322,0.49,0,0.72,0.294,0.41,0,0.56,0.312,0.35,0,0.583,0.333,0.38,0,0.643,0.225,-0.2,0.315,0,0.308,0.45,0,0.601,0.297,0.34,0,0.542
03761,20110825,-75.79,39.86,0.323,0.48,0,0.673,0.293,0.39,0,0.56,0.311,0.33,0,0.583,0.338,0.4,0,0.643,0.227,-0.17,0.173,0,0.308,0.44,0,0.595,0.298,0.34,0,0.542
03761,20110826,-75.79,39.86,0.328,0.5,0,0.72,0.297,0.41,0,0.613,0.313,0.34,0,0.643,0.346,0.44,0,0.756,0.229,-0.13,0.03,0,0.312,0.46,0,0.649,0.303,0.37,0,0.601
03761,20110827,-75.79,39.86,0.326,0.49,0,0.72,0.295,0.4,0,0.601,0.312,0.33,0,0.577,0.349,0.43,0,0.756,0.231,-0.1,0,0,0.311,0.45,0,0.649,0.303,0.36,0,0.601
03761,20110828,-75.79,39.86,0.333,0.52,0,0.72,0.301,0.44,0,0.601,0.316,0.36,0,0.524,0.354,0.45,0,0.756,0.239,0.02,0,0.071,0.317,0.48,0,0.649,0.308,0.4,0,0.601
03761,20110829,-75.79,39.86,0.337,0.54,0,0.72,0.305,0.46,0,0.601,0.319,0.37,0,0.524,0.358,0.47,0,0.756,0.251,0.2,0,0.214,0.321,0.5,0,0.649,0.314,0.44,0,0.601
03761,20110830,-75.79,39.86,0.34,0.55,0,0.75,0.308,0.48,0,0.685,0.321,0.37,0,0.53,0.362,0.49,0,0.756,0.26,0.33,0,0.357,0.324,0.51,0,0.72,0.318,0.46,0,0.702
03761,20110831,-75.79,39.86,0.343,0.56,0,0.768,0.311,0.49,0,0.714,0.323,0.39,0,0.53,0.365,0.51,0,0.839,0.269,0.45,0,0.5,0.327,0.52,0,0.738,0.322,0.49,0,0.845
03761,20110901,-75.79,39.86,0.346,0.57,0,0.768,0.313,0.51,0,0.714,0.325,0.4,0,0.53,0.368,0.52,0,0.982,0.276,0.57,0,0.643,0.329,0.54,0,0.738,0.326,0.51,0,0.893
03761,20110902,-75.79,39.86,0.338,0.53,0,0.631,0.307,0.47,0,0.583,0.321,0.38,0,0.399,0.366,0.51,0,0.988,0.283,0.66,0,0.786,0.322,0.5,0,0.607,0.323,0.49,0,0.762
03761,20110903,-75.79,39.86,0.331,0.5,0,0.488,0.301,0.44,0,0.452,0.318,0.36,0,0.321,0.365,0.49,0,0.893,0.289,0.74,0,0.929,0.316,0.47,0,0.464,0.321,0.48,0,0.619
03761,20110904,-75.79,39.86,0.318,0.44,0,0.345,0.289,0.37,0,0.31,0.309,0.31,0,0.232,0.359,0.44,0,0.75,0.287,0.7,0,1,0.304,0.41,0,0.321,0.312,0.42,0,0.476
03761,20110905,-75.79,39.86,0.305,0.38,0,0.202,0.279,0.31,0,0.167,0.302,0.27,0,0.089,0.354,0.4,0,0.607,0.281,0.61,0,1,0.292,0.35,0,0.179,0.304,0.37,0,0.333
03761,20110906,-75.79,39.86,0.304,0.4,0,0.137,0.278,0.32,0,0.107,0.3,0.28,0,0.071,0.352,0.39,0,0.512,0.278,0.56,0,0.994,0.291,0.37,0,0.113,0.302,0.37,0,0.268
03761,20110907,-75.79,39.86,0.315,0.49,0,0.22,0.286,0.4,0,0.22,0.305,0.35,0,0.214,0.356,0.42,0,0.512,0.282,0.61,0,0.994,0.3,0.45,0,0.22,0.309,0.44,0,0.268
03761,20110908,-75.79,39.86,0.326,0.59,0,0.363,0.295,0.49,0,0.363,0.31,0.41,0,0.357,0.36,0.46,0,0.512,0.287,0.67,0,0.994,0.31,0.54,0,0.363,0.316,0.52,0,0.363
03761,20110909,-75.79,39.86,0.337,0.68,0,0.506,0.304,0.57,0,0.506,0.316,0.47,0,0.5,0.364,0.5,0,0.524,0.29,0.7,0,0.994,0.32,0.62,0,0.506,0.322,0.59,0,0.506
03761,20110910,-75.79,39.86,0.346,0.75,0,0.649,0.311,0.63,0,0.649,0.321,0.52,0,0.643,0.367,0.54,0,0.619,0.292,0.73,0,0.994,0.328,0.68,0,0.649,0.327,0.65,0,0.649
03761,20110911,-75.79,39.86,0.354,0.81,0,0.792,0.317,0.68,0,0.792,0.325,0.57,0,0.786,0.37,0.58,0,0.762,0.294,0.75,0,0.994,0.335,0.74,0,0.792,0.332,0.7,0,0.792
03761,20110912,-75.79,39.86,0.363,0.88,0,0.935,0.323,0.72,0,0.935,0.33,0.61,0,0.929,0.373,0.62,0,0.905,0.296,0.77,0,0.994,0.343,0.79,0,0.935,0.337,0.75,0,0.935
03761,20110913,-75.79,39.86,0.364,0.89,0,1,0.322,0.72,0,1,0.33,0.62,0,1,0.374,0.64,0,1,0.296,0.77,0,1,0.343,0.8,0,1,0.337,0.77,0,1
03761,20110914,-75.79,39.86,0.354,0.83,0,1,0.313,0.65,0,1,0.324,0.57,0,1,0.369,0.61,0,1,0.291,0.71,0,1,0.333,0.73,0,1,0.33,0.72,0,1
03761,20110915,-75.79,39.86,0.343,0.76,0,1,0.304,0.58,0,0.994,0.318,0.54,0,1,0.365,0.59,0,1,0.285,0.62,0,1,0.323,0.67,0,1,0.323,0.67,0,1
03761,20110916,-75.79,39.86,0.333,0.7,0,1,0.295,0.52,0,0.929,0.313,0.5,0,0.988,0.361,0.57,0,1,0.281,0.57,0,1,0.314,0.61,0,1,0.316,0.63,0,1
03761,20110917,-75.79,39.86,0.325,0.65,0,1,0.288,0.47,0,0.786,0.307,0.46,0,0.887,0.357,0.55,0,1,0.277,0.53,0,0.964,0.307,0.56,0,0.923,0.311,0.6,0,1
03761,20110918,-75.79,39.86,0.319,0.6,0,0.976,0.282,0.44,0,0.643,0.303,0.43,0,0.744,0.354,0.53,0,1,0.274,0.5,0,0.839,0.301,0.52,0,0.78,0.306,0.57,0,0.994
03761,20110919,-75.79,39.86,0.311,0.55,0,0.833,0.277,0.4,0,0.5,0.298,0.4,0,0.601,0.35,0.51,0,1,0.272,0.47,0,0.696,0.294,0.48,0,0.637,0.302,0.53,0,0.851